EW7638 Weather Reports


time (UTC)temp
F
wind
direction
speed
knots
gust
knots
rain 1hr
in
rain 24hr
in
rain mn
in
humidity
%
barometer
mb
20260510190247 85 107 0.0 6.1 0.00 0.00 0.00 40 1013.9
20260510185747 85 258 0.0 0.0 0.00 0.00 0.00 41 1014.0
20260510185400 85 141 0.9 3.5 0.00 0.00 0.00 41 1014.2
20260510185248 84 129 0.0 0.0 0.00 0.00 0.00 42 1014.0
20260510184752 85 26 0.0 0.0 0.00 0.00 0.00 41 1014.2
20260510184747 84 186 0.0 0.0 0.00 0.00 0.00 40 1014.1
20260510183245 84 321 0.9 4.3 0.00 0.00 0.00 39 1014.3
20260510182745 85 284 0.0 4.3 0.00 0.00 0.00 43 1014.3
20260510182249 84 206 0.0 0.0 0.00 0.00 0.00 42 1014.3
20260510182245 85 93 0.0 0.0 0.00 0.00 0.00 41 1014.3
20260510181245 85 133 0.0 2.6 0.00 0.00 0.00 42 1014.3
20260510180745 84 79 0.0 2.6 0.00 0.00 0.00 43 1014.4
20260510180245 84 66 0.0 0.9 0.00 0.00 0.00 43 1014.4
20260510175748 84 319 0.0 3.5 0.00 0.00 0.00 43 1014.5
20260510175744 84 212 0.9 3.5 0.00 0.00 0.00 44 1014.5
20260510174743 84 342 1.7 6.1 0.00 0.00 0.00 41 1014.5
20260510174243 84 111 1.7 6.1 0.00 0.00 0.00 40 1014.5
20260510173750 85 241 0.0 3.5 0.00 0.00 0.00 41 1014.5
20260510173746 85 190 0.0 3.5 0.00 0.00 0.00 41 1014.5
20260510172745 85 290 0.0 0.0 0.00 0.00 0.00 40 1014.5
20260510172243 85 281 0.0 0.0 0.00 0.00 0.00 41 1014.5
20260510171752 85 271 0.0 0.0 0.00 0.00 0.00 45 1014.7
20260510171746 85 222 0.0 0.0 0.00 0.00 0.00 44 1014.6
20260510170743 84 222 0.0 0.0 0.00 0.00 0.00 42 1014.8
20260510170243 84 241 0.0 0.0 0.00 0.00 0.00 45 1014.7
20260510165743 83 128 0.0 0.0 0.00 0.00 0.00 44 1014.8
20260510165242 82 129 0.0 0.0 0.00 0.00 0.00 47 1014.7
20260510164741 82 353 0.0 0.0 0.00 0.00 0.00 44 1014.8
20260510164240 82 219 0.0 0.0 0.00 0.00 0.00 44 1014.8
20260510163741 82 134 0.0 0.0 0.00 0.00 0.00 46 1014.8
20260510163242 82 116 0.0 0.0 0.00 0.00 0.00 47 1014.9
20260510162741 82 271 0.0 0.0 0.00 0.00 0.00 49 1014.9
20260510162241 81 115 0.0 0.0 0.00 0.00 0.00 49 1015.0
20260510161741 81 318 0.0 0.0 0.00 0.00 0.00 47 1015.0
20260510161239 81 107 0.0 1.7 0.00 0.00 0.00 51 1015.0
20260510160738 81 133 0.0 3.5 0.00 0.00 0.00 53 1015.0
20260510160237 80 178 0.9 4.3 0.00 0.00 0.00 51 1015.0
20260510155737 80 139 0.0 4.3 0.00 0.00 0.00 50 1015.0
20260510155238 80 90 0.0 0.9 0.00 0.00 0.00 52 1015.2
20260510154738 80 133 0.0 0.0 0.00 0.00 0.00 53 1015.2
20260510154237 80 120 0.0 0.0 0.00 0.00 0.00 55 1015.3
20260510153735 80 317 0.0 2.6 0.00 0.00 0.00 54 1015.4
20260510153235 79 109 0.0 2.6 0.00 0.00 0.00 53 1015.4
20260510152735 79 146 0.0 0.0 0.00 0.00 0.00 56 1015.4
20260510152239 78 156 0.0 2.6 0.00 0.00 0.00 58 1015.3
20260510152235 79 139 0.0 2.6 0.00 0.00 0.00 58 1015.3
20260510151237 78 276 0.0 0.0 0.00 0.00 0.00 57 1015.2
20260510150733 78 211 0.0 0.0 0.00 0.00 0.00 58 1015.2
20260510150233 78 337 0.0 0.0 0.00 0.00 0.00 59 1015.2
20260510145731 78 326 0.0 0.0 0.00 0.00 0.00 60 1015.2
20260510145229 77 319 0.0 0.0 0.00 0.00 0.00 65 1015.2
20260510144729 77 126 0.0 0.0 0.00 0.00 0.00 63 1015.2
20260510144230 76 302 0.0 0.0 0.00 0.00 0.00 64 1015.2
20260510143734 76 342 0.0 0.0 0.00 0.00 0.00 66 1015.2
20260510143728 76 212 0.0 0.0 0.00 0.00 0.00 65 1015.2
20260510142731 76 348 0.0 0.0 0.00 0.00 0.00 66 1015.2
20260510142727 76 0 0.0 0.0 0.00 0.00 0.00 65 1015.2
20260510141729 74 327 0.0 0.0 0.00 0.00 0.00 68 1015.2
20260510141725 75 330 0.0 0.0 0.00 0.00 0.00 69 1015.1
20260510140728 74 336 0.0 0.0 0.00 0.00 0.00 70 1015.2
20260510140724 74 302 0.0 0.0 0.00 0.00 0.00 69 1015.3
20260510135725 74 120 0.0 0.0 0.00 0.00 0.00 73 1015.2
20260510135226 73 210 0.0 0.0 0.00 0.00 0.00 73 1015.2
20260510134726 73 325 0.0 0.0 0.00 0.00 0.00 71 1015.3
20260510134229 72 48 0.0 0.0 0.00 0.00 0.00 77 1015.2
20260510134224 72 124 0.0 0.0 0.00 0.00 0.00 75 1015.2
20260510133224 71 8 0.0 0.0 0.00 0.00 0.00 77 1015.1
20260510132730 71 134 0.0 0.0 0.00 0.00 0.00 80 1015.0
20260510132726 71 8 0.0 0.0 0.00 0.00 0.00 78 1015.1
20260510131725 70 104 0.0 0.0 0.00 0.00 0.00 81 1015.0
20260510131226 69 203 0.0 0.0 0.00 0.00 0.00 83 1014.9
20260510130724 69 148 0.0 0.0 0.00 0.00 0.00 83 1014.9
20260510130228 67 130 0.0 0.0 0.00 0.00 0.00 85 1014.8
20260510130224 68 114 0.0 0.0 0.00 0.00 0.00 84 1014.9
20260510125223 67 214 0.0 0.0 0.00 0.00 0.00 85 1014.7
20260510125217 66 193 0.0 0.0 0.00 0.00 0.00 84 1014.7
20260510124216 65 131 0.0 0.0 0.00 0.00 0.00 84 1014.7
20260510123719 65 131 0.0 0.0 0.00 0.00 0.00 84 1014.8
20260510123218 64 131 0.0 0.0 0.00 0.00 0.00 83 1014.7
20260510122719 64 316 0.0 0.0 0.00 0.00 0.00 83 1014.5
20260510122221 64 86 0.0 0.0 0.00 0.00 0.00 83 1014.5
20260510122217 64 45 0.0 0.0 0.00 0.00 0.00 83 1014.5
20260510121222 63 137 0.0 0.0 0.00 0.00 0.00 83 1014.4
20260510121218 64 61 0.0 0.0 0.00 0.00 0.00 83 1014.4
20260510120217 63 137 0.0 0.0 0.00 0.00 0.00 83 1014.4
20260510115719 63 137 0.0 0.0 0.00 0.00 0.00 83 1014.4
20260510115220 0 0.0 0.0 0.00 0.00 0.00 1014.3
20260510115216 62 131 0.0 0.0 0.00 0.00 0.00 83 1014.4
20260510114214 0 0.0 0.0 0.00 0.00 0.00 1014.3
20260510113713 0 0.0 0.0 0.00 0.00 0.00 1014.1
20260510113709 0 0.0 0.0 0.00 0.00 0.00 1014.0
20260510112712 0 0.0 0.0 0.00 0.00 0.00 1013.9
20260510112214 0 0.0 0.0 0.00 0.00 0.00 1013.8
20260510111619 0 0.0 0.0 0.00 0.00 0.00 1013.7
20260510111615 0 0.0 0.0 0.00 0.00 0.00 1013.8
20260510110609 0 0.0 0.0 0.00 0.00 0.00 1013.7
20260510110014 0 0.0 0.0 0.00 0.00 0.00 1013.7
20260510105518 0 0.0 0.0 0.00 0.00 0.00 1013.4
20260510105514 0 0.0 0.0 0.00 0.00 0.00 1013.5
20260510104511 0 0.0 0.0 0.00 0.00 0.00 1013.3
20260510104010 0 0.0 0.0 0.00 0.00 0.00 1013.3
20260510104005 0 0.0 0.0 0.00 0.00 0.00 1013.2
20260510102916 0 0.0 0.0 0.00 0.00 0.00 1013.0
20260510102912 0 0.0 0.0 0.00 0.00 0.00 1013.2
20260510101908 0 0.0 0.0 0.00 0.00 0.00 1013.0
20260510101311 0 0.0 0.0 0.00 0.00 0.00 1012.9
20260510100802 0 0.0 0.0 0.00 0.00 0.00 1012.8
20260510100214 0 0.0 0.0 0.00 0.00 0.00 1012.8
20260510095714 0 0.0 0.0 0.00 0.00 0.00 1012.8
20260510095206 0 0.0 0.0 0.00 0.00 0.00 1012.8
20260510094615 0 0.0 0.0 0.00 0.00 0.00 1012.8
20260510094113 0 0.0 0.0 0.00 0.00 0.00 1012.8
20260510093615 0 0.0 0.0 0.00 0.00 0.00 1012.5
20260510093605 0 0.0 0.0 0.00 0.00 0.00 1012.5
20260510092515 0 0.0 0.0 0.00 0.00 0.00 1012.5
20260510092017 0 0.0 0.0 0.00 0.00 0.00 1012.4
20260510091516 0 0.0 0.0 0.00 0.00 0.00 1012.2
20260510091008 0 0.0 0.0 0.00 0.00 0.00 1012.2
20260510090509 58 74 0.0 0.0 0.00 0.00 0.00 84 1012.1
20260510085915 58 74 0.0 0.0 0.00 0.00 0.00 84 1011.9
20260510085412 58 74 0.0 0.0 0.00 0.00 0.00 84 1011.9
20260510084912 58 74 0.0 0.0 0.00 0.00 0.00 84 1011.8
20260510084413 60 72 0.0 0.0 0.00 0.00 0.00 84 1011.7
20260510083915 60 72 0.0 0.0 0.00 0.00 0.00 84 1011.7
20260510083911 60 72 0.0 0.0 0.00 0.00 0.00 84 1011.7
20260510082910 60 72 0.0 0.0 0.00 0.00 0.00 84 1011.8
20260510082410 60 72 0.0 0.0 0.00 0.00 0.00 84 1011.8
20260510081909 60 72 0.0 0.0 0.00 0.00 0.00 84 1011.8
20260510081414 60 72 0.0 0.0 0.00 0.00 0.00 84 1011.8
20260510081408 60 72 0.0 0.0 0.00 0.00 0.00 84 1011.8
20260510081023 60 72 0.0 0.0 0.00 0.00 0.00 84 1011.7
20260510080519 60 72 0.0 0.0 0.00 0.00 0.00 84 1011.7
20260510075414 60 72 0.0 0.0 0.00 0.00 0.00 84 1011.7
20260510075410 60 72 0.0 0.0 0.00 0.00 0.00 84 1011.7
20260510075017 60 72 0.0 0.0 0.00 0.00 0.00 84 1011.7
20260510073908 60 72 0.0 0.0 0.00 0.00 0.00 84 1011.6
20260510073405 60 72 0.0 0.0 0.00 0.00 0.00 84 1011.6
20260510072904 60 72 0.0 0.0 0.00 0.00 0.00 84 1011.6
20260510072403 60 72 0.0 0.0 0.00 0.00 0.00 84 1011.6
20260510071902 60 72 0.0 0.0 0.00 0.00 0.00 84 1011.5
20260510071406 60 72 0.0 0.0 0.00 0.00 0.00 84 1011.5
20260510071401 60 72 0.0 0.0 0.00 0.00 0.00 84 1011.5
20260510070404 60 72 0.0 0.0 0.00 0.00 0.00 84 1011.5
20260510070400 60 72 0.0 0.0 0.00 0.00 0.00 84 1011.4
20260510070011 60 72 0.0 0.0 0.00 0.00 0.00 84 1011.6
20260510064900 60 72 0.0 0.0 0.00 0.00 0.00 85 1011.7
20260510064405 60 72 0.0 0.0 0.00 0.00 0.00 85 1011.7
20260510064401 60 72 0.0 0.0 0.00 0.00 0.00 85 1011.7
20260510063400 60 72 0.0 0.0 0.00 0.00 0.00 85 1011.5
20260510062858 60 72 0.0 0.0 0.00 0.00 0.00 84 1011.5
20260510062400 60 72 0.0 0.0 0.00 0.00 0.00 84 1011.4
20260510061859 60 72 0.0 0.0 0.00 0.00 0.00 84 1011.4
20260510061358 60 72 0.0 0.0 0.00 0.00 0.00 84 1011.4
20260510060859 60 72 0.0 0.0 0.00 0.00 0.00 85 1011.5
20260510060358 60 72 0.0 0.0 0.00 0.00 0.00 84 1011.5
20260510055858 60 72 0.0 0.0 0.00 0.00 0.00 84 1011.7
20260510055404 60 72 0.0 0.0 0.00 0.00 0.00 84 1011.7
20260510055400 60 72 0.0 0.0 0.00 0.00 0.00 84 1011.6
20260510054356 60 72 0.0 0.0 0.00 0.00 0.00 85 1011.8
20260510053902 60 72 0.0 0.0 0.00 0.00 0.00 85 1011.8
20260510053858 60 72 0.0 0.0 0.00 0.00 0.00 85 1011.8
20260510052858 60 72 0.0 0.0 0.00 0.00 0.00 84 1011.8
20260510052359 60 72 0.0 0.0 0.00 0.00 0.00 84 1012.1
20260510051901 61 72 0.0 0.0 0.00 0.00 0.00 84 1011.9
20260510051356 61 72 0.0 0.0 0.00 0.00 0.00 84 1012.2
20260510050855 60 72 0.0 0.0 0.00 0.00 0.00 85 1012.2
20260510050355 60 72 0.0 0.0 0.00 0.00 0.00 85 1012.2
20260510045855 61 72 0.0 0.0 0.00 0.00 0.00 85 1012.1
20260510045354 61 72 0.0 0.0 0.00 0.00 0.00 85 1012.2
20260510044900 61 72 0.0 0.0 0.00 0.00 0.00 85 1012.3
20260510044856 61 72 0.0 0.0 0.00 0.00 0.00 85 1012.2
20260510043854 61 72 0.0 0.0 0.00 0.00 0.00 85 1012.3
20260510043355 61 72 0.0 0.0 0.00 0.00 0.00 85 1012.3
20260510042854 61 72 0.0 0.0 0.00 0.00 0.00 85 1012.3
20260510042355 61 72 0.0 0.0 0.00 0.00 0.00 85 1012.2
20260510041852 61 72 0.0 0.0 0.00 0.00 0.00 85 1012.1
20260510041353 61 72 0.0 0.0 0.00 0.00 0.00 85 1012.1
20260510040859 61 72 0.0 0.0 0.00 0.00 0.00 85 1012.1
20260510040852 61 72 0.0 0.0 0.00 0.00 0.00 85 1012.1
20260510035854 61 72 0.0 0.0 0.00 0.00 0.00 85 1012.1
20260510035353 61 72 0.0 0.0 0.00 0.00 0.00 85 1011.9
20260510034854 61 72 0.0 0.0 0.00 0.00 0.00 85 1011.8
20260510034356 61 72 0.0 0.0 0.00 0.00 0.00 85 1011.9
20260510034352 61 72 0.0 0.0 0.00 0.00 0.00 85 1011.8
20260510034000 61 72 0.0 0.0 0.00 0.00 0.00 85 1011.9
20260510033458 61 72 0.0 0.0 0.00 0.00 0.00 85 1011.9
20260510033001 61 72 0.0 0.0 0.00 0.00 0.00 85 1011.9
20260510031850 61 72 0.0 0.0 0.00 0.00 0.00 85 1011.8
20260510031352 62 72 0.0 0.0 0.00 0.00 0.00 85 1011.8
20260510030850 62 72 0.0 0.0 0.00 0.00 0.00 85 1011.8
20260510030350 62 72 0.0 0.0 0.00 0.00 0.00 85 1011.7
20260510025850 62 72 0.0 0.0 0.00 0.00 0.00 85 1011.7
20260510025354 62 72 0.0 0.0 0.00 0.00 0.00 85 1011.7
20260510025350 62 72 0.0 0.0 0.00 0.00 0.00 85 1011.7
20260510024353 62 72 0.0 0.0 0.00 0.00 0.00 85 1011.6
20260510024349 62 72 0.0 0.0 0.00 0.00 0.00 85 1011.7
20260510023355 63 72 0.0 0.0 0.00 0.00 0.00 85 1011.6
20260510023350 62 72 0.0 0.0 0.00 0.00 0.00 85 1011.6
20260510022348 63 72 0.0 0.0 0.00 0.00 0.00 85 1011.6
20260510021848 63 72 0.0 0.0 0.00 0.00 0.00 85 1011.5
20260510021352 63 72 0.0 0.0 0.00 0.00 0.00 85 1011.5
20260510021348 63 72 0.0 0.0 0.00 0.00 0.00 85 1011.5
20260510020349 63 72 0.0 0.0 0.00 0.00 0.00 85 1011.4
20260510015847 63 72 0.0 0.0 0.00 0.00 0.00 85 1011.4
20260510015349 64 72 0.0 0.0 0.00 0.00 0.00 85 1011.5
20260510014852 64 72 0.0 0.0 0.00 0.00 0.00 85 1011.5
20260510014848 64 72 0.0 0.0 0.00 0.00 0.00 85 1011.6
20260510013853 64 72 0.0 0.0 0.00 0.00 0.00 85 1011.0
20260510013848 64 72 0.0 0.0 0.00 0.00 0.00 85 1011.2
20260510012848 64 72 0.0 0.0 0.00 0.00 0.00 85 1011.0
20260510012349 64 72 0.0 0.0 0.00 0.00 0.00 84 1011.0
20260510011848 65 72 0.0 0.0 0.00 0.00 0.00 84 1010.9
20260510011346 65 72 0.0 0.0 0.00 0.00 0.00 84 1010.7
20260510010847 65 72 0.0 0.0 0.00 0.00 0.00 84 1010.7
20260510010348 65 72 0.0 0.0 0.00 0.00 0.00 84 1010.6
20260510005845 65 72 0.0 0.0 0.00 0.00 0.00 84 1010.6
20260510005354 66 72 0.0 0.0 0.00 0.00 0.00 83 1010.6
20260510005350 66 72 0.0 0.0 0.00 0.00 0.00 83 1010.7
20260510004955 66 72 0.0 0.0 0.00 0.00 0.00 83 1010.5
20260510004453 67 72 0.0 0.0 0.00 0.00 0.00 83 1010.5
20260510003955 67 72 0.0 0.0 0.00 0.00 0.00 83 1010.5
20260510002847 67 72 0.0 0.0 0.00 0.00 0.00 82 1010.4
20260510002346 68 72 0.0 0.0 0.00 0.00 0.00 82 1010.4
20260510001843 68 72 0.0 0.0 0.00 0.00 0.00 81 1010.5
20260510001345 68 72 0.0 0.0 0.00 0.00 0.00 81 1010.5
20260510000844 69 72 0.0 0.0 0.00 0.00 0.00 80 1010.5
20260510000348 70 72 0.0 0.0 0.00 0.00 0.00 80 1010.4
20260510000343 69 72 0.0 0.0 0.00 0.00 0.00 80 1010.5
20260509235952 70 72 0.0 0.0 0.00 0.00 0.00 79 1010.4
20260509234844 71 72 0.0 0.0 0.00 0.00 0.00 78 1010.3
20260509234350 71 72 0.0 0.0 0.00 0.00 0.00 77 1010.3
20260509234344 71 72 0.0 0.0 0.00 0.00 0.00 77 1010.2
20260509233345 72 72 0.0 0.0 0.00 0.00 0.00 76 1010.0
20260509233341 72 72 0.0 0.0 0.00 0.00 0.00 76 1010.2
20260509232342 72 79 0.0 0.0 0.00 0.00 0.00 75 1009.8
20260509231842 72 110 0.0 0.0 0.00 0.00 0.00 74 1009.8
20260509231342 73 104 0.0 0.0 0.00 0.00 0.00 74 1009.8
20260509230844 73 57 0.0 0.0 0.00 0.00 0.00 74 1009.8
20260509230340 73 142 0.0 0.0 0.00 0.00 0.00 73 1009.7
20260509225840 73 141 0.0 0.0 0.00 0.00 0.00 73 1009.6
20260509225340 73 127 0.0 0.0 0.00 0.00 0.00 73 1009.7
20260509224838 73 124 0.0 0.0 0.00 0.00 0.00 72 1009.6
20260509224337 73 132 0.0 0.0 0.00 0.00 0.00 72 1009.6
20260509223842 73 142 0.0 0.0 0.00 0.00 0.00 72 1009.7
20260509223838 73 120 0.0 0.0 0.00 0.00 0.00 72 1009.6
20260509223446 74 125 0.0 0.0 0.00 0.00 0.00 72 1009.7
20260509222334 74 215 0.0 0.0 0.00 0.00 0.00 72 1009.7
20260509221835 74 75 0.0 0.0 0.00 0.00 0.00 72 1009.6
20260509221332 74 351 0.0 0.0 0.00 0.00 0.00 72 1009.8
20260509220835 74 124 0.0 0.0 0.00 0.00 0.00 72 1009.8
20260509220335 74 354 0.0 0.0 0.00 0.00 0.00 72 1009.8
20260509220331 74 63 0.0 0.0 0.00 0.00 0.00 71 1009.9
20260509215331 74 151 0.0 2.6 0.00 0.00 0.00 70 1009.7
20260509214831 74 146 0.0 2.6 0.00 0.00 0.00 70 1009.7
20260509214333 75 141 0.0 0.9 0.00 0.00 0.00 71 1009.8
20260509213835 74 146 0.0 0.0 0.00 0.00 0.00 71 1009.6
20260509213831 74 115 0.0 0.9 0.00 0.00 0.00 70 1009.7
20260509212835 74 109 0.0 0.0 0.00 0.00 0.00 71 1009.7
20260509212831 74 288 0.0 0.0 0.00 0.00 0.00 72 1009.6
20260509211833 74 113 0.0 6.1 0.00 0.00 0.00 71 1009.7
20260509211335 74 101 0.0 1.7 0.00 0.00 0.00 70 1009.6
20260509211331 74 131 0.0 6.1 0.00 0.00 0.00 70 1009.6
20260509210332 74 139 0.0 1.7 0.00 0.00 0.00 70 1009.6
20260509205833 74 124 0.9 8.7 0.00 0.00 0.00 70 1009.7
20260509205332 74 139 0.9 8.7 0.00 0.00 0.00 69 1009.5
20260509204833 75 199 0.9 5.2 0.00 0.00 0.00 69 1009.4
20260509204332 74 122 1.7 8.7 0.00 0.00 0.00 70 1009.4
20260509203828 73 110 1.7 8.7 0.00 0.00 0.00 71 1009.5
20260509203331 73 41 0.0 2.6 0.00 0.00 0.00 72 1009.5
20260509203327 73 105 0.9 6.1 0.00 0.00 0.00 71 1009.6
20260509202935 72 209 0.0 0.0 0.00 0.00 0.00 73 1009.5
20260509201827 72 145 0.0 6.1 0.00 0.00 0.00 73 1009.6
20260509201323 72 225 0.0 6.1 0.00 0.00 0.00 73 1009.8
20260509200823 72 9 0.9 3.5 0.00 0.00 0.00 74 1009.9
20260509200322 71 167 0.9 7.0 0.00 0.00 0.00 73 1009.7
20260509195823 72 205 0.9 7.0 0.00 0.00 0.00 73 1009.9
20260509195327 71 75 0.0 0.0 0.00 0.00 0.00 72 1010.0
20260509195321 72 129 0.0 0.0 0.00 0.00 0.00 73 1010.0
20260509194926 72 141 0.0 0.0 0.00 0.00 0.00 73 1009.9
20260509193821 71 61 0.0 0.0 0.00 0.00 0.00 72 1009.9
20260509193325 72 61 0.0 0.0 0.00 0.00 0.00 70 1010.1
20260509193321 72 61 0.0 0.0 0.00 0.00 0.00 71 1010.0
20260509192321 72 354 0.0 0.0 0.00 0.00 0.00 70 1010.2
20260509191819 73 359 0.0 0.0 0.00 0.00 0.00 69 1010.3
20260509191320 73 9 0.0 0.9 0.00 0.00 0.00 68 1010.3
20260509190820 73 293 0.0 1.7 0.00 0.00 0.00 67 1010.3